TimeEDT,TemperatureF,Dew PointF,Humidity,Sea Level PressureIn,VisibilityMPH,Wind Direction,Wind SpeedMPH,Gust SpeedMPH,PrecipitationIn,Events,Conditions,WindDirDegrees,DateUTC
12:54 AM,55.9,48.0,75,30.01,10.0,Calm,Calm,-,N/A,,Overcast,0,2008-04-11 04:54:00
1:54 AM,57.0,48.0,72,29.99,10.0,South,3.5,-,N/A,,Overcast,170,2008-04-11 05:54:00
2:54 AM,57.0,48.9,74,29.98,10.0,Calm,Calm,-,N/A,,Overcast,0,2008-04-11 06:54:00
3:54 AM,59.0,50.0,72,29.98,10.0,Calm,Calm,-,N/A,,Overcast,0,2008-04-11 07:54:00
4:54 AM,60.1,50.0,69,29.99,10.0,Calm,Calm,-,N/A,,Overcast,0,2008-04-11 08:54:00
5:54 AM,61.0,48.9,64,29.99,10.0,South,3.5,-,N/A,,Overcast,180,2008-04-11 09:54:00
6:28 AM,60.8,48.2,63,30.04,10.0,ESE,3.5,-,N/A,,Overcast,120,2008-04-11 10:28:00
6:54 AM,60.1,50.0,69,29.98,10.0,SSE,5.8,-,N/A,,Overcast,160,2008-04-11 10:54:00
7:54 AM,61.0,52.0,72,29.99,10.0,SSE,9.2,-,N/A,,Overcast,150,2008-04-11 11:54:00
8:54 AM,63.0,54.0,72,29.98,10.0,South,10.4,-,N/A,,Scattered Clouds,180,2008-04-11 12:54:00
9:54 AM,64.0,55.9,75,29.99,10.0,South,8.1,-,N/A,,Mostly Cloudy,190,2008-04-11 13:54:00
10:54 AM,69.1,57.9,68,29.97,10.0,SSW,12.7,-,N/A,,Scattered Clouds,200,2008-04-11 14:54:00
11:54 AM,69.1,57.9,68,29.95,10.0,South,15.0,-,N/A,,Mostly Cloudy,190,2008-04-11 15:54:00
12:54 PM,70.0,57.9,65,29.93,10.0,South,16.1,24.2,N/A,,Clear,180,2008-04-11 16:54:00
1:54 PM,72.0,59.0,64,29.89,10.0,South,17.3,23.0,N/A,,Mostly Cloudy,190,2008-04-11 17:54:00
2:54 PM,73.0,57.9,59,29.86,10.0,SSW,11.5,-,N/A,,Mostly Cloudy,210,2008-04-11 18:54:00
3:54 PM,72.0,57.9,61,29.83,10.0,SSW,9.2,-,N/A,,Overcast,200,2008-04-11 19:54:00
4:54 PM,71.1,59.0,66,29.82,10.0,South,8.1,-,N/A,,Overcast,170,2008-04-11 20:54:00
5:54 PM,72.0,57.9,61,29.82,10.0,South,10.4,-,N/A,,Overcast,180,2008-04-11 21:54:00
6:54 PM,71.1,59.0,66,29.83,10.0,SSW,5.8,-,N/A,,Overcast,210,2008-04-11 22:54:00
7:54 PM,69.8,59.0,68,29.86,10.0,South,6.9,-,N/A,,Scattered Clouds,180,2008-04-11 23:54:00
8:54 PM,68.0,59.0,73,29.81,10.0,SSW,4.6,-,N/A,,Mostly Cloudy,200,2008-04-12 00:54:00
9:13 PM,68.0,60.8,78,29.88,9.0,SW,3.5,-,0.01,Thunderstorm,Thunderstorm,220,2008-04-12 01:13:00
9:54 PM,64.0,62.1,93,29.78,7.0,Variable,3.5,-,0.05,Rain,Light Rain,0,2008-04-12 01:54:00
10:01 PM,64.4,62.6,94,29.87,6.0,NW,9.2,-,0.01,Rain,Light Rain,310,2008-04-12 02:01:00
10:09 PM,64.4,60.8,88,29.88,10.0,Variable,3.5,-,0.01,Rain,Light Rain,0,2008-04-12 02:09:00
10:54 PM,64.0,61.0,90,29.78,10.0,Variable,3.5,-,0.01,,Mostly Cloudy,0,2008-04-12 02:54:00
11:54 PM,64.9,60.1,84,29.78,10.0,SSE,9.2,-,N/A,,Scattered Clouds,160,2008-04-12 03:54:00